Regional Weather Roundup
Issued by NWS

Home | Current Version | Previous Version | Graphics & Text | Print | Product List | Glossary On
Versions: 1 2 3 4 5 6 7 8 9 10 11 12 13 14 15 16 17 18 19 20 21 22 23 24 25 26 27 28 29 30 31 32 33 34 35 36 37 38 39 40 41 42 43 44 45 46 47 48 49 50
923
ASUS44 KLIX 292305
RWRLA
LOUISIANA WEATHER ROUNDUP
NATIONAL WEATHER SERVICE NEW ORLEANS LA
600 PM CDT TUE JUL 29 2014

NOTE: "FAIR" INDICATES FEW OR NO CLOUDS BELOW 12,000 FEET WITH NO
      SIGNIFICANT WEATHER AND/OR OBSTRUCTIONS TO VISIBILITY.
      SKY/WX - SKY CONDITION AND SIGNIFICANT WEATHER.
      TMP - AIR TEMPERATURE.    DP   - DEWPOINT TEMPERATURE.
      RH  - RELATIVE HUMIDITY.  PRES - PRESSURE.
      HX  - HEAT INDEX.         WCI  - WIND CHILL INDEX.

*  THESE STATIONS ARE NOT NWS OR FAA STATIONS AND ARE NOT UNDER
   NWS QUALITY CONTROL.

LAZ040-048-061>063-065-066-069-300000-
SOUTHEAST LOUISIANA

CITY           SKY/WX    TMP DP  RH WIND       PRES   REMARKS
N.O. AUDUBON     N/A     91  66  44 MISG        N/A
N.O. INTL ARPT PTSUNNY   88  65  46 N6        30.01F
N.O. LAKEFRONT SUNNY     86  68  54 W9        30.01F
N.O. DOWNTOWN* FAIR      88  63  42 N9        30.02S
SLIDELL        SUNNY     88  63  43 NW7       30.00F
BATON ROUGE    SUNNY     89  63  41 N3        30.02F
BOOTHVILLE     MOSUNNY   84  66  54 VRB3      30.02S
BELLE CHASSE   MOSUNNY   87  61  41 VRB7      30.00F
BOGALUSA*      FAIR      89  61  39 N6        30.02F
GALLIANO*      NOT AVBL
NEW ROADS*     FAIR      86  65  49 NW8       30.03F
GONZALES*      FAIR      87  67  50 N5        30.01F
HAMMOND*       SUNNY     90  59  35 NW6       30.03F
HOUMA*         NOT AVBL
PORT FOURCHON* MOCLDY    88  70  55 CALM      30.02S

$$

LAZ041-044-053-054-300000-
SOUTHWEST LOUISIANA

CITY           SKY/WX    TMP DP  RH WIND       PRES   REMARKS
LAKE CHARLES   PTSUNNY   87  69  54 NE12      30.02F
LAFAYETTE      PTSUNNY   86  66  51 N12       30.03F
PATTERSON      PTSUNNY   86  72  62 NW6       30.06S
SALT POINT       N/A     89  72  56 VRB3      30.01S HX  96
NEW IBERIA     PTSUNNY   86  65  49 N10       30.03S
CHENAULT AIRPK NOT AVBL

$$

LAZ027-028-300000-
CENTRAL LOUISIANA

CITY           SKY/WX    TMP DP  RH WIND       PRES   REMARKS
FORT POLK      SUNNY     87  64  46 N6        30.05F
ALEXANDRIA INT SUNNY     90  63  40 NW5       30.02F
ALEXANDRIA     SUNNY     91  65  41 E3        30.04S

$$

LAZ001-002-300000-
NORTHWEST LOUISIANA

CITY           SKY/WX    TMP DP  RH WIND       PRES   REMARKS
SHREVEPORT     MOSUNNY   90  62  39 N6        30.05S
BARKSDALE AFB  MOSUNNY   89  63  41 N9        30.05F
DTN SHREVEPORT SUNNY     90  61  37 N6        30.05F

$$

LAZ014-016-300000-
NORTHEAST LOUISIANA

CITY           SKY/WX    TMP DP  RH WIND       PRES   REMARKS
MONROE         MOSUNNY   86  68  54 NE10      30.06S
TALLULAH       SUNNY     85  64  49 N12       30.05S

$$




USA.gov is the U.S. government's official web portal to all federal, state and local government web resources and services.